| time (UTC) | temp C | wind direction | speed KPH | gust KPH | rain 1hr cm | rain 24hr cm | rain mn cm | humidity % | barometer mb |
| 20260510041525 | 22 | 155 | 0.0 | 1.6 | 0.00 | 4.29 | 4.29 | 85 | 1011.7 |
| 20260510041028 | 22 | 155 | 0.0 | 8.0 | 0.00 | 4.29 | 4.29 | 85 | 1011.7 |
| 20260510040525 | 22 | 155 | 0.0 | 8.0 | 0.00 | 4.29 | 4.29 | 85 | 1011.6 |
| 20260510040030 | 22 | 155 | 3.2 | 6.4 | 0.00 | 4.29 | 4.29 | 85 | 1011.5 |
| 20260510035525 | 22 | 157 | 3.2 | 8.0 | 0.00 | 4.29 | 4.29 | 84 | 1011.6 |
| 20260510035025 | 22 | 157 | 3.2 | 8.0 | 0.00 | 4.29 | 4.29 | 84 | 1011.6 |
| 20260510034532 | 22 | 145 | 3.2 | 11.3 | 0.00 | 4.29 | 4.29 | 85 | 1011.6 |
| 20260510034024 | 22 | 132 | 4.8 | 11.3 | 0.00 | 4.29 | 4.29 | 84 | 1011.7 |
| 20260510033523 | 22 | 125 | 3.2 | 6.4 | 0.00 | 4.29 | 4.29 | 85 | 1011.8 |
| 20260510033024 | 22 | 121 | 1.6 | 6.4 | 0.00 | 4.29 | 4.29 | 86 | 1011.8 |
| 20260510032527 | 22 | 121 | 3.2 | 6.4 | 0.00 | 4.29 | 4.29 | 86 | 1011.8 |
| 20260510032023 | 22 | 121 | 1.6 | 6.4 | 0.00 | 4.29 | 4.29 | 86 | 1012.0 |
| 20260510031523 | 21 | 98 | 3.2 | 11.3 | 0.00 | 4.29 | 4.29 | 87 | 1011.9 |
| 20260510031021 | 21 | 125 | 3.2 | 11.3 | 0.00 | 4.29 | 4.29 | 88 | 1011.7 |
| 20260510030520 | 21 | 110 | 3.2 | 9.7 | 0.00 | 4.29 | 4.29 | 89 | 1011.5 |
| 20260510030019 | 21 | 82 | 1.6 | 6.4 | 0.00 | 4.29 | 4.29 | 89 | 1011.4 |
| 20260510025520 | 20 | 108 | 0.0 | 6.4 | 0.00 | 4.29 | 4.29 | 89 | 1011.3 |
| 20260510025019 | 20 | 84 | 0.0 | 6.4 | 0.00 | 4.29 | 4.29 | 89 | 1011.0 |
| 20260510024519 | 20 | 98 | 0.0 | 3.2 | 0.00 | 4.29 | 4.29 | 89 | 1010.8 |
| 20260510024018 | 20 | 98 | 0.0 | 4.8 | 0.00 | 4.29 | 4.29 | 89 | 1010.8 |
| 20260510023518 | 20 | 98 | 1.6 | 4.8 | 0.00 | 4.29 | 4.29 | 88 | 1010.7 |
| 20260510023018 | 20 | 98 | 0.0 | 3.2 | 0.00 | 4.29 | 4.29 | 88 | 1010.5 |
| 20260510022518 | 20 | 98 | 0.0 | 1.6 | 0.00 | 4.29 | 4.29 | 88 | 1010.3 |
| 20260510022017 | 20 | 98 | 0.0 | 4.8 | 0.00 | 4.29 | 4.29 | 88 | 1010.3 |
| 20260510021531 | 20 | 98 | 0.0 | 9.7 | 0.00 | 4.29 | 4.29 | 89 | 1010.2 |
| 20260510021020 | 20 | 98 | 1.6 | 9.7 | 0.00 | 4.29 | 4.29 | 89 | 1010.0 |
| 20260510020517 | 21 | 103 | 1.6 | 9.7 | 0.00 | 4.29 | 4.29 | 89 | 1010.0 |
| 20260510020018 | 21 | 105 | 3.2 | 11.3 | 0.00 | 4.29 | 4.29 | 90 | 1009.9 |
| 20260510015517 | 21 | 111 | 3.2 | 12.9 | 0.00 | 4.29 | 4.29 | 90 | 1009.6 |
| 20260510015022 | 21 | 134 | 4.8 | 12.9 | 0.00 | 4.29 | 4.29 | 91 | 1009.3 |
| 20260510014517 | 21 | 153 | 0.0 | 0.0 | 0.00 | 4.29 | 4.29 | 90 | 1009.0 |
| 20260510014018 | 21 | 153 | 0.0 | 0.0 | 0.00 | 4.29 | 4.29 | 90 | 1009.0 |
| 20260510013516 | 20 | 153 | 0.0 | 0.0 | 0.00 | 4.29 | 4.29 | 90 | 1009.0 |
| 20260510013016 | 20 | 153 | 0.0 | 1.6 | 0.00 | 4.29 | 4.29 | 89 | 1009.0 |
| 20260510012516 | 21 | 153 | 0.0 | 1.6 | 0.00 | 4.29 | 4.29 | 89 | 1008.9 |
| 20260510012015 | 20 | 153 | 0.0 | 4.8 | 0.00 | 4.29 | 4.29 | 89 | 1009.0 |
| 20260510011516 | 20 | 153 | 0.0 | 4.8 | 0.00 | 4.29 | 4.29 | 89 | 1009.1 |
| 20260510011015 | 20 | 153 | 0.0 | 3.2 | 0.03 | 4.29 | 4.29 | 89 | 1009.0 |
| 20260510010515 | 20 | 153 | 0.0 | 1.6 | 0.15 | 4.29 | 4.29 | 88 | 1008.6 |
| 20260510010015 | 20 | 153 | 0.0 | 1.6 | 0.46 | 4.29 | 4.29 | 88 | 1008.7 |
| 20260510005515 | 20 | 153 | 0.0 | 1.6 | 1.57 | 4.29 | 4.29 | 88 | 1008.8 |
| 20260510005014 | 20 | 153 | 0.0 | 3.2 | 2.84 | 4.29 | 4.29 | 88 | 1008.5 |
| 20260510004517 | 20 | 153 | 0.0 | 3.2 | 3.63 | 4.29 | 4.29 | 87 | 1008.7 |
| 20260510004014 | 20 | 153 | 1.6 | 6.4 | 3.71 | 4.29 | 4.29 | 86 | 1008.6 |
| 20260510003514 | 20 | 153 | 0.0 | 6.4 | 3.84 | 4.29 | 4.29 | 86 | 1008.6 |
| 20260510003014 | 20 | 272 | 0.0 | 6.4 | 4.17 | 4.29 | 4.29 | 86 | 1008.6 |
| 20260510002514 | 20 | 222 | 0.0 | 9.7 | 4.27 | 4.29 | 4.29 | 85 | 1008.6 |
| 20260510002013 | 20 | 172 | 6.4 | 9.7 | 4.27 | 4.29 | 4.29 | 83 | 1008.5 |
| 20260510001513 | 20 | 178 | 3.2 | 14.5 | 4.27 | 4.29 | 4.29 | 82 | 1008.7 |
| 20260510001015 | 20 | 109 | 8.0 | 16.1 | 4.22 | 4.24 | 4.24 | 81 | 1009.0 |
| 20260510000514 | 20 | 150 | 8.0 | 30.6 | 4.09 | 4.11 | 4.11 | 78 | 1009.0 |
| 20260510000017 | 21 | 167 | 14.5 | 30.6 | 3.78 | 3.78 | 3.78 | 73 | 1009.4 |
| 20260509235510 | 21 | 169 | 4.8 | 22.5 | 2.41 | 2.41 | 2.41 | 77 | 1011.4 |
| 20260509235009 | 23 | 92 | 4.8 | 22.5 | 1.24 | 1.24 | 1.24 | 77 | 1010.2 |
| 20260509234508 | 25 | 183 | 3.2 | 12.9 | 0.64 | 0.64 | 0.64 | 76 | 1009.2 |
| 20260509234007 | 26 | 186 | 0.0 | 11.3 | 0.58 | 0.58 | 0.58 | 77 | 1008.8 |
| 20260509233506 | 26 | 293 | 3.2 | 12.9 | 0.41 | 0.41 | 0.41 | 78 | 1008.6 |
| 20260509233006 | 27 | 237 | 6.4 | 12.9 | 0.10 | 0.10 | 0.10 | 76 | 1008.1 |
| 20260509232506 | 27 | 188 | 1.6 | 6.4 | 0.03 | 0.03 | 0.03 | 75 | 1008.1 |
| 20260509232007 | 28 | 188 | 1.6 | 11.3 | 0.03 | 0.03 | 0.03 | 74 | 1008.2 |
| 20260509231506 | 28 | 174 | 1.6 | 11.3 | 0.03 | 0.03 | 0.03 | 74 | 1008.0 |
| 20260509231005 | 28 | 175 | 4.8 | 9.7 | 0.03 | 0.03 | 0.03 | 72 | 1008.2 |
| 20260509230505 | 30 | 164 | 3.2 | 8.0 | 0.03 | 0.03 | 0.03 | 71 | 1008.1 |
| 20260509230006 | 30 | 159 | 3.2 | 8.0 | 0.00 | 0.00 | 0.00 | 66 | 1008.0 |
| 20260509225506 | 31 | 157 | 3.2 | 8.0 | 0.00 | 0.00 | 0.00 | 62 | 1007.9 |
| 20260509225005 | 31 | 113 | 1.6 | 4.8 | 0.00 | 0.00 | 0.00 | 59 | 1007.7 |
| 20260509224505 | 31 | 113 | 0.0 | 4.8 | 0.00 | 0.00 | 0.00 | 59 | 1007.7 |
| 20260509224006 | 31 | 113 | 1.6 | 4.8 | 0.00 | 0.00 | 0.00 | 59 | 1007.8 |
| 20260509223505 | 31 | 113 | 0.0 | 4.8 | 0.00 | 0.00 | 0.00 | 59 | 1007.8 |
| 20260509223004 | 31 | 113 | 1.6 | 6.4 | 0.00 | 0.00 | 0.00 | 60 | 1007.8 |
| 20260509222504 | 31 | 130 | 1.6 | 9.7 | 0.00 | 0.00 | 0.00 | 60 | 1007.7 |
| 20260509222006 | 31 | 108 | 3.2 | 9.7 | 0.00 | 0.00 | 0.00 | 58 | 1007.7 |
| 20260509221504 | 31 | 113 | 3.2 | 8.0 | 0.00 | 0.00 | 0.00 | 58 | 1007.6 |
| 20260509221004 | 31 | 126 | 1.6 | 9.7 | 0.00 | 0.00 | 0.00 | 59 | 1007.7 |
| 20260509220503 | 31 | 130 | 3.2 | 9.7 | 0.00 | 0.00 | 0.00 | 60 | 1007.7 |
| 20260509220003 | 31 | 123 | 4.8 | 9.7 | 0.00 | 0.00 | 0.00 | 60 | 1007.6 |
| 20260509215503 | 31 | 109 | 4.8 | 9.7 | 0.00 | 0.00 | 0.00 | 59 | 1007.7 |
| 20260509215003 | 31 | 128 | 3.2 | 9.7 | 0.00 | 0.00 | 0.00 | 58 | 1007.6 |
| 20260509214502 | 31 | 125 | 3.2 | 9.7 | 0.00 | 0.00 | 0.00 | 58 | 1007.7 |
| 20260509214003 | 31 | 137 | 3.2 | 6.4 | 0.00 | 0.00 | 0.00 | 58 | 1007.6 |
| 20260509213501 | 32 | 134 | 3.2 | 8.0 | 0.00 | 0.00 | 0.00 | 57 | 1007.6 |
| 20260509213002 | 32 | 25 | 1.6 | 8.0 | 0.00 | 0.00 | 0.00 | 55 | 1007.6 |
| 20260509212500 | 33 | 355 | 3.2 | 9.7 | 0.00 | 0.00 | 0.00 | 55 | 1007.7 |
| 20260509212100 | 33 | 355 | 3.2 | 9.7 | 0.00 | 0.00 | 0.00 | 55 | 1007.7 |
| 20260509211601 | 32 | 265 | 1.6 | 4.8 | 0.00 | 0.00 | 0.00 | 55 | 1007.7 |
| 20260509211104 | 32 | 264 | 1.6 | 4.8 | 0.00 | 0.00 | 0.00 | 57 | 1007.7 |
| 20260509210600 | 32 | 263 | 0.0 | 4.8 | 0.00 | 0.00 | 0.00 | 55 | 1007.8 |
| 20260509210115 | 33 | 298 | 1.6 | 8.0 | 0.00 | 0.00 | 0.00 | 56 | 1007.9 |
| 20260509205557 | 33 | 299 | 1.6 | 8.0 | 0.00 | 0.00 | 0.00 | 55 | 1008.0 |
| 20260509205057 | 33 | 311 | 1.6 | 12.9 | 0.00 | 0.00 | 0.00 | 54 | 1008.1 |
| 20260509204559 | 33 | 313 | 4.8 | 12.9 | 0.00 | 0.00 | 0.00 | 54 | 1008.2 |
| 20260509204056 | 33 | 327 | 1.6 | 9.7 | 0.00 | 0.00 | 0.00 | 52 | 1008.3 |
| 20260509203555 | 33 | 305 | 3.2 | 9.7 | 0.00 | 0.00 | 0.00 | 53 | 1008.3 |
| 20260509203055 | 33 | 11 | 3.2 | 9.7 | 0.00 | 0.00 | 0.00 | 52 | 1008.3 |
| 20260509202554 | 33 | 302 | 4.8 | 8.0 | 0.00 | 0.00 | 0.00 | 52 | 1008.3 |
| 20260509202054 | 33 | 278 | 0.0 | 4.8 | 0.00 | 0.00 | 0.00 | 52 | 1008.4 |
| 20260509201600 | 33 | 245 | 0.0 | 4.8 | 0.00 | 0.00 | 0.00 | 51 | 1008.4 |
| 20260509201052 | 34 | 254 | 0.0 | 4.8 | 0.00 | 0.00 | 0.00 | 50 | 1008.6 |
| 20260509200551 | 33 | 330 | 0.0 | 4.8 | 0.00 | 0.00 | 0.00 | 51 | 1008.6 |
| 20260509200100 | 33 | 330 | 0.0 | 9.7 | 0.00 | 0.00 | 0.00 | 52 | 1008.6 |
| 20260509195548 | 33 | 28 | 1.6 | 9.7 | 0.00 | 0.00 | 0.00 | 50 | 1008.7 |
| 20260509195048 | 33 | 267 | 1.6 | 9.7 | 0.00 | 0.00 | 0.00 | 53 | 1008.8 |
| 20260509194547 | 33 | 303 | 3.2 | 9.7 | 0.00 | 0.00 | 0.00 | 52 | 1008.8 |
| 20260509194046 | 33 | 325 | 1.6 | 6.4 | 0.00 | 0.00 | 0.00 | 52 | 1008.9 |
| 20260509193546 | 33 | 328 | 3.2 | 6.4 | 0.00 | 0.00 | 0.00 | 52 | 1008.9 |
| 20260509193046 | 33 | 342 | 1.6 | 6.4 | 0.00 | 0.00 | 0.00 | 53 | 1008.9 |
| 20260509192545 | 33 | 32 | 1.6 | 9.7 | 0.00 | 0.00 | 0.00 | 52 | 1008.9 |
| 20260509192046 | 33 | 335 | 1.6 | 9.7 | 0.00 | 0.00 | 0.00 | 52 | 1008.9 |
| 20260509191545 | 33 | 19 | 1.6 | 6.4 | 0.00 | 0.00 | 0.00 | 52 | 1008.9 |
| 20260509191046 | 33 | 329 | 1.6 | 6.4 | 0.00 | 0.00 | 0.00 | 53 | 1009.0 |
| 20260509190544 | 33 | 17 | 1.6 | 9.7 | 0.00 | 0.00 | 0.00 | 54 | 1009.0 |
| 20260509190051 | 33 | 344 | 4.8 | 9.7 | 0.00 | 0.00 | 0.00 | 52 | 1009.0 |
| 20260509185543 | 33 | 339 | 1.6 | 6.4 | 0.00 | 0.00 | 0.00 | 54 | 1009.1 |
| 20260509185042 | 33 | 331 | 0.0 | 4.8 | 0.00 | 0.00 | 0.00 | 54 | 1009.2 |
| 20260509184540 | 32 | 329 | 1.6 | 6.4 | 0.00 | 0.00 | 0.00 | 56 | 1009.2 |
| 20260509184039 | 33 | 178 | 1.6 | 8.0 | 0.00 | 0.00 | 0.00 | 55 | 1009.2 |
| 20260509183538 | 32 | 265 | 0.0 | 6.4 | 0.00 | 0.00 | 0.00 | 57 | 1009.4 |
| 20260509183039 | 32 | 170 | 0.0 | 6.4 | 0.00 | 0.00 | 0.00 | 57 | 1009.5 |
| 20260509182537 | 31 | 246 | 0.0 | 8.0 | 0.00 | 0.00 | 0.00 | 58 | 1009.6 |
| 20260509182035 | 31 | 155 | 0.0 | 8.0 | 0.00 | 0.00 | 0.00 | 61 | 1009.6 |
| 20260509181538 | 31 | 182 | 1.6 | 8.0 | 0.00 | 0.00 | 0.00 | 60 | 1009.7 |
| 20260509181035 | 31 | 188 | 1.6 | 11.3 | 0.00 | 0.00 | 0.00 | 62 | 1009.7 |
| 20260509180535 | 31 | 166 | 6.4 | 11.3 | 0.00 | 0.00 | 0.00 | 60 | 1009.8 |
| 20260509180035 | 31 | 174 | 0.0 | 11.3 | 0.00 | 0.00 | 0.00 | 59 | 1010.0 |
| 20260509175534 | 31 | 312 | 1.6 | 11.3 | 0.00 | 0.00 | 0.00 | 61 | 1010.1 |
| 20260509175033 | 31 | 227 | 1.6 | 14.5 | 0.00 | 0.00 | 0.00 | 62 | 1010.1 |
| 20260509174532 | 31 | 149 | 0.0 | 14.5 | 0.00 | 0.00 | 0.00 | 64 | 1010.2 |
| 20260509174031 | 30 | 116 | 3.2 | 12.9 | 0.00 | 0.00 | 0.00 | 66 | 1010.3 |
| 20260509173532 | 30 | 189 | 6.4 | 14.5 | 0.00 | 0.00 | 0.00 | 65 | 1010.4 |
| 20260509173028 | 30 | 187 | 4.8 | 14.5 | 0.00 | 0.00 | 0.00 | 68 | 1010.5 |
| 20260509172527 | 29 | 183 | 1.6 | 17.7 | 0.00 | 0.00 | 0.00 | 71 | 1010.4 |
| 20260509172027 | 28 | 151 | 9.7 | 17.7 | 0.00 | 0.00 | 0.00 | 70 | 1010.4 |
| 20260509171535 | 28 | 138 | 4.8 | 12.9 | 0.00 | 0.00 | 0.00 | 70 | 1010.5 |
| 20260509171026 | 28 | 173 | 3.2 | 11.3 | 0.00 | 0.00 | 0.00 | 70 | 1010.5 |
| 20260509170528 | 28 | 173 | 6.4 | 11.3 | 0.00 | 0.00 | 0.00 | 73 | 1010.8 |
| 20260509170030 | 28 | 148 | 1.6 | 9.7 | 0.00 | 0.00 | 0.00 | 73 | 1010.8 |
| 20260509165525 | 28 | 162 | 1.6 | 9.7 | 0.00 | 0.00 | 0.00 | 72 | 1010.9 |
| 20260509165026 | 28 | 159 | 1.6 | 8.0 | 0.00 | 0.00 | 0.00 | 74 | 1010.8 |
| 20260509164522 | 28 | 171 | 1.6 | 8.0 | 0.00 | 0.00 | 0.00 | 74 | 1010.8 |
| 20260509164024 | 28 | 163 | 1.6 | 8.0 | 0.00 | 0.00 | 0.00 | 77 | 1010.8 |
| 20260509163518 | 27 | 100 | 1.6 | 6.4 | 0.00 | 0.00 | 0.00 | 78 | 1010.9 |
| 20260509163017 | 26 | 15 | 0.0 | 3.2 | 0.00 | 0.00 | 0.00 | 79 | 1010.8 |
| 20260509162516 | 26 | 11 | 0.0 | 3.2 | 0.00 | 0.00 | 0.00 | 80 | 1010.8 |
| 20260509162016 | 26 | 11 | 0.0 | 3.2 | 0.00 | 0.00 | 0.00 | 81 | 1010.8 |
| 20260509161515 | 26 | 11 | 1.6 | 6.4 | 0.00 | 0.00 | 0.00 | 82 | 1010.7 |
| 20260509161013 | 26 | 355 | 0.0 | 6.4 | 0.00 | 0.00 | 0.00 | 82 | 1010.8 |
| 20260509160513 | 26 | 9 | 1.6 | 4.8 | 0.00 | 0.00 | 0.00 | 83 | 1010.8 |
| 20260509160013 | 26 | 157 | 0.0 | 4.8 | 0.00 | 0.00 | 0.00 | 83 | 1010.8 |
| 20260509155513 | 25 | 157 | 0.0 | 4.8 | 0.00 | 0.00 | 0.00 | 83 | 1010.9 |
| 20260509155011 | 25 | 157 | 0.0 | 3.2 | 0.00 | 0.00 | 0.00 | 84 | 1010.8 |
| 20260509154516 | 25 | 157 | 0.0 | 3.2 | 0.00 | 0.00 | 0.00 | 85 | 1010.8 |
| 20260509154011 | 25 | 157 | 0.0 | 3.2 | 0.00 | 0.00 | 0.00 | 85 | 1010.7 |
| 20260509153511 | 25 | 157 | 0.0 | 3.2 | 0.00 | 0.00 | 0.00 | 85 | 1010.8 |
| 20260509153009 | 25 | 157 | 0.0 | 4.8 | 0.00 | 0.00 | 0.00 | 86 | 1010.6 |
| 20260509152509 | 25 | 157 | 0.0 | 4.8 | 0.00 | 0.00 | 0.00 | 86 | 1010.6 |
| 20260509152009 | 25 | 157 | 0.0 | 3.2 | 0.00 | 0.00 | 0.00 | 87 | 1010.8 |
| 20260509151507 | 25 | 157 | 0.0 | 4.8 | 0.00 | 0.00 | 0.00 | 87 | 1010.8 |
| 20260509151006 | 25 | 157 | 1.6 | 4.8 | 0.00 | 0.00 | 0.00 | 87 | 1010.6 |
| 20260509150507 | 25 | 157 | 0.0 | 4.8 | 0.00 | 0.00 | 0.00 | 87 | 1010.6 |
| 20260509150015 | 25 | 157 | 0.0 | 4.8 | 0.00 | 0.00 | 0.00 | 88 | 1010.6 |
| 20260509145505 | 25 | 157 | 0.0 | 4.8 | 0.00 | 0.00 | 0.00 | 89 | 1010.4 |
| 20260509145004 | 24 | 157 | 1.6 | 4.8 | 0.00 | 0.00 | 0.00 | 89 | 1010.4 |
| 20260509144502 | 24 | 157 | 1.6 | 3.2 | 0.00 | 0.00 | 0.00 | 89 | 1010.4 |
| 20260509144001 | 24 | 157 | 0.0 | 3.2 | 0.00 | 0.00 | 0.00 | 90 | 1010.2 |
| 20260509143501 | 24 | 157 | 0.0 | 3.2 | 0.00 | 0.00 | 0.00 | 90 | 1010.2 |
| 20260509143001 | 24 | 157 | 0.0 | 1.6 | 0.00 | 0.00 | 0.00 | 90 | 1010.2 |
| 20260509142600 | 23 | 157 | 0.0 | 3.2 | 0.00 | 0.00 | 0.00 | 91 | 1010.1 |
| 20260509142059 | 23 | 157 | 0.0 | 3.2 | 0.00 | 0.00 | 0.00 | 92 | 1010.0 |
| 20260509141600 | 23 | 157 | 0.0 | 1.6 | 0.00 | 0.00 | 0.00 | 92 | 1009.8 |
| 20260509141100 | 23 | 157 | 0.0 | 3.2 | 0.00 | 0.00 | 0.00 | 92 | 1009.9 |
| 20260509140558 | 23 | 157 | 0.0 | 4.8 | 0.00 | 0.00 | 0.00 | 91 | 1009.8 |
| 20260509140104 | 23 | 157 | 1.6 | 8.0 | 0.00 | 0.00 | 0.00 | 91 | 1009.6 |
| 20260509135558 | 23 | 157 | 1.6 | 8.0 | 0.00 | 0.00 | 0.00 | 92 | 1009.6 |
| 20260509135057 | 23 | 157 | 1.6 | 4.8 | 0.00 | 0.00 | 0.00 | 92 | 1009.9 |
| 20260509134626 | 23 | 157 | 0.0 | 1.6 | 0.00 | 0.00 | 0.00 | 92 | 1010.0 |
| 20260509134059 | 23 | 157 | 0.0 | 1.6 | 0.00 | 0.00 | 0.00 | 92 | 1010.3 |
| 20260509133557 | 23 | 157 | 0.0 | 8.0 | 0.00 | 0.00 | 0.00 | 92 | 1010.6 |
| 20260509133059 | 23 | 157 | 3.2 | 8.0 | 0.00 | 0.00 | 0.00 | 92 | 1010.5 |
| 20260509132656 | 23 | 157 | 3.2 | 8.0 | 0.00 | 0.00 | 0.00 | 93 | 1010.4 |
| 20260509132056 | 23 | 149 | 0.0 | 4.8 | 0.00 | 0.00 | 0.00 | 93 | 1010.8 |
| 20260509131555 | 23 | 149 | 1.6 | 8.0 | 0.00 | 0.00 | 0.00 | 93 | 1010.7 |
| 20260509131054 | 23 | 148 | 1.6 | 8.0 | 0.00 | 0.00 | 0.00 | 93 | 1010.8 |
| 20260509130554 | 23 | 148 | 1.6 | 3.2 | 0.00 | 0.00 | 0.00 | 94 | 1011.0 |
| 20260509130054 | 23 | 148 | 0.0 | 1.6 | 0.00 | 0.00 | 0.00 | 94 | 1011.3 |
| 20260509125553 | 23 | 148 | 0.0 | 3.2 | 0.00 | 0.00 | 0.00 | 94 | 1011.1 |
| 20260509125051 | 23 | 148 | 0.0 | 4.8 | 0.00 | 0.00 | 0.00 | 94 | 1010.7 |
| 20260509124551 | 23 | 148 | 0.0 | 4.8 | 0.00 | 0.00 | 0.00 | 94 | 1010.5 |
| 20260509124050 | 23 | 148 | 1.6 | 4.8 | 0.00 | 0.00 | 0.00 | 94 | 1010.6 |
| 20260509123549 | 23 | 148 | 0.0 | 3.2 | 0.00 | 0.00 | 0.00 | 94 | 1010.7 |
| 20260509123051 | 23 | 148 | 0.0 | 1.6 | 0.00 | 0.00 | 0.00 | 94 | 1010.7 |
| 20260509122549 | 23 | 148 | 0.0 | 1.6 | 0.00 | 0.00 | 0.00 | 94 | 1010.5 |
| 20260509122048 | 22 | 148 | 0.0 | 1.6 | 0.00 | 0.00 | 0.00 | 94 | 1010.5 |
| 20260509121552 | 22 | 148 | 0.0 | 1.6 | 0.00 | 0.00 | 0.00 | 94 | 1010.6 |
| 20260509121049 | 22 | 148 | 0.0 | 1.6 | 0.00 | 0.00 | 0.00 | 94 | 1010.7 |
| 20260509120549 | 22 | 148 | 0.0 | 1.6 | 0.00 | 0.00 | 0.00 | 94 | 1010.7 |
| 20260509120049 | 22 | 148 | 0.0 | 1.6 | 0.00 | 0.00 | 0.00 | 94 | 1010.6 |
| 20260509115547 | 22 | 148 | 0.0 | 1.6 | 0.00 | 0.00 | 0.00 | 94 | 1010.6 |
| 20260509115047 | 22 | 148 | 0.0 | 0.0 | 0.00 | 0.00 | 0.00 | 94 | 1010.2 |
| 20260509114547 | 22 | 148 | 0.0 | 3.2 | 0.00 | 0.00 | 0.00 | 94 | 1010.3 |
| 20260509114047 | 22 | 148 | 0.0 | 3.2 | 0.00 | 0.00 | 0.00 | 93 | 1010.5 |
| 20260509113547 | 22 | 148 | 0.0 | 1.6 | 0.00 | 0.00 | 0.00 | 93 | 1010.5 |
| 20260509113051 | 22 | 148 | 0.0 | 3.2 | 0.00 | 0.00 | 0.00 | 93 | 1010.4 |
| 20260509112548 | 22 | 148 | 0.0 | 3.2 | 0.00 | 0.00 | 0.00 | 93 | 1010.4 |
| 20260509112046 | 22 | 148 | 0.0 | 3.2 | 0.00 | 0.00 | 0.00 | 93 | 1010.5 |
| 20260509111546 | 22 | 148 | 1.6 | 3.2 | 0.00 | 0.00 | 0.00 | 93 | 1010.4 |
| 20260509111045 | 22 | 148 | 1.6 | 3.2 | 0.00 | 0.00 | 0.00 | 93 | 1010.3 |
| 20260509110548 | 22 | 148 | 0.0 | 3.2 | 0.00 | 0.00 | 0.00 | 93 | 1010.2 |
| 20260509110045 | 22 | 148 | 0.0 | 1.6 | 0.00 | 0.00 | 0.00 | 93 | 1010.1 |
| 20260509105545 | 22 | 148 | 0.0 | 1.6 | 0.00 | 0.00 | 0.00 | 93 | 1010.0 |
| 20260509105044 | 22 | 148 | 0.0 | 1.6 | 0.00 | 0.00 | 0.00 | 93 | 1009.9 |
| 20260509104544 | 22 | 148 | 0.0 | 3.2 | 0.00 | 0.00 | 0.00 | 93 | 1009.8 |
| 20260509104043 | 22 | 148 | 0.0 | 3.2 | 0.00 | 0.00 | 0.00 | 93 | 1009.8 |
| 20260509103543 | 22 | 148 | 0.0 | 4.8 | 0.00 | 0.00 | 0.00 | 93 | 1009.7 |
| 20260509103044 | 22 | 148 | 1.6 | 4.8 | 0.00 | 0.00 | 0.00 | 93 | 1009.7 |
| 20260509102543 | 22 | 148 | 1.6 | 3.2 | 0.00 | 0.00 | 0.00 | 93 | 1009.8 |
| 20260509102043 | 22 | 148 | 0.0 | 1.6 | 0.00 | 0.00 | 0.00 | 93 | 1009.9 |
| 20260509101551 | 22 | 148 | 0.0 | 3.2 | 0.00 | 0.00 | 0.00 | 93 | 1010.0 |
| 20260509101042 | 22 | 148 | 0.0 | 3.2 | 0.00 | 0.00 | 0.00 | 93 | 1009.8 |
| 20260509100542 | 22 | 148 | 0.0 | 1.6 | 0.00 | 0.00 | 0.00 | 93 | 1009.8 |
| 20260509100042 | 23 | 148 | 0.0 | 1.6 | 0.00 | 0.00 | 0.00 | 93 | 1009.8 |
| 20260509095542 | 23 | 148 | 0.0 | 1.6 | 0.00 | 0.00 | 0.00 | 93 | 1009.7 |
| 20260509095042 | 23 | 148 | 0.0 | 1.6 | 0.00 | 0.00 | 0.00 | 93 | 1009.6 |
| 20260509094543 | 23 | 148 | 0.0 | 1.6 | 0.00 | 0.00 | 0.00 | 93 | 1009.5 |
| 20260509094041 | 23 | 148 | 0.0 | 1.6 | 0.00 | 0.00 | 0.00 | 93 | 1009.5 |
| 20260509093540 | 23 | 148 | 0.0 | 1.6 | 0.00 | 0.00 | 0.00 | 93 | 1009.4 |
| 20260509093041 | 23 | 148 | 0.0 | 1.6 | 0.00 | 0.00 | 0.00 | 93 | 1009.4 |
| 20260509092540 | 23 | 148 | 0.0 | 1.6 | 0.00 | 0.00 | 0.00 | 93 | 1009.4 |
| 20260509092043 | 23 | 148 | 0.0 | 1.6 | 0.00 | 0.00 | 0.00 | 93 | 1009.5 |
| 20260509091540 | 23 | 148 | 0.0 | 1.6 | 0.00 | 0.00 | 0.00 | 93 | 1009.7 |
| 20260509091043 | 23 | 148 | 0.0 | 0.0 | 0.00 | 0.00 | 0.00 | 93 | 1009.9 |
| 20260509090539 | 23 | 148 | 0.0 | 1.6 | 0.00 | 0.00 | 0.00 | 93 | 1009.9 |
| 20260509090039 | 23 | 148 | 0.0 | 1.6 | 0.00 | 0.00 | 0.00 | 93 | 1010.0 |
| 20260509085539 | 23 | 148 | 0.0 | 3.2 | 0.00 | 0.00 | 0.00 | 93 | 1009.9 |
| 20260509085039 | 23 | 148 | 0.0 | 3.2 | 0.00 | 0.00 | 0.00 | 93 | 1009.9 |
| 20260509084539 | 23 | 148 | 0.0 | 3.2 | 0.00 | 0.00 | 0.00 | 93 | 1010.0 |
| 20260509084039 | 23 | 148 | 0.0 | 1.6 | 0.00 | 0.00 | 0.00 | 93 | 1009.9 |
| 20260509083537 | 23 | 148 | 0.0 | 1.6 | 0.00 | 0.00 | 0.00 | 93 | 1009.7 |
| 20260509083045 | 23 | 148 | 0.0 | 1.6 | 0.00 | 0.00 | 0.00 | 93 | 1009.8 |
| 20260509082537 | 23 | 148 | 0.0 | 1.6 | 0.00 | 0.00 | 0.00 | 93 | 1009.7 |
| 20260509082037 | 23 | 148 | 0.0 | 3.2 | 0.00 | 0.00 | 0.00 | 93 | 1009.8 |
| 20260509081538 | 23 | 148 | 0.0 | 3.2 | 0.00 | 0.00 | 0.00 | 93 | 1009.6 |
| 20260509081038 | 23 | 148 | 0.0 | 3.2 | 0.00 | 0.00 | 0.00 | 93 | 1009.6 |
| 20260509080537 | 23 | 148 | 0.0 | 3.2 | 0.00 | 0.00 | 0.00 | 93 | 1009.7 |
| 20260509080037 | 23 | 148 | 0.0 | 4.8 | 0.00 | 0.00 | 0.00 | 93 | 1009.7 |
| 20260509075538 | 23 | 148 | 0.0 | 4.8 | 0.00 | 0.00 | 0.00 | 93 | 1009.8 |
| 20260509075034 | 23 | 148 | 0.0 | 4.8 | 0.00 | 0.00 | 0.00 | 93 | 1009.7 |
| 20260509074531 | 23 | 148 | 1.6 | 4.8 | 0.00 | 0.00 | 0.00 | 93 | 1009.7 |
| 20260509074029 | 23 | 148 | 1.6 | 8.0 | 0.00 | 0.00 | 0.00 | 93 | 1009.6 |
| 20260509073531 | 23 | 163 | 4.8 | 11.3 | 0.00 | 0.00 | 0.00 | 93 | 1009.4 |
| 20260509073027 | 23 | 165 | 4.8 | 11.3 | 0.00 | 0.00 | 0.00 | 93 | 1009.5 |
| 20260509072527 | 23 | 146 | 3.2 | 8.0 | 0.00 | 0.00 | 0.00 | 93 | 1009.4 |
| 20260509072028 | 23 | 134 | 3.2 | 8.0 | 0.00 | 0.00 | 0.00 | 93 | 1009.7 |
| 20260509071525 | 23 | 161 | 4.8 | 8.0 | 0.00 | 0.00 | 0.00 | 93 | 1009.9 |
| 20260509071025 | 23 | 132 | 3.2 | 6.4 | 0.00 | 0.00 | 0.00 | 93 | 1009.9 |
| 20260509070526 | 23 | 129 | 1.6 | 4.8 | 0.00 | 0.00 | 0.00 | 93 | 1010.1 |
| 20260509070023 | 23 | 129 | 1.6 | 3.2 | 0.00 | 0.00 | 0.00 | 93 | 1010.1 |
| 20260509065522 | 23 | 129 | 0.0 | 3.2 | 0.00 | 0.00 | 0.00 | 92 | 1010.1 |
| 20260509065022 | 23 | 129 | 0.0 | 3.2 | 0.00 | 0.00 | 0.00 | 92 | 1010.2 |
| 20260509064520 | 23 | 129 | 0.0 | 3.2 | 0.00 | 0.00 | 0.00 | 93 | 1010.1 |
| 20260509064021 | 23 | 129 | 0.0 | 1.6 | 0.00 | 0.00 | 0.00 | 92 | 1010.2 |
| 20260509063521 | 23 | 129 | 0.0 | 3.2 | 0.00 | 0.00 | 0.00 | 93 | 1010.2 |
| 20260509063018 | 23 | 129 | 0.0 | 3.2 | 0.00 | 0.00 | 0.00 | 93 | 1010.0 |
| 20260509062517 | 23 | 129 | 0.0 | 3.2 | 0.00 | 0.00 | 0.00 | 92 | 1010.2 |
| 20260509062018 | 23 | 129 | 0.0 | 3.2 | 0.00 | 0.00 | 0.00 | 92 | 1010.3 |
| 20260509061516 | 23 | 129 | 0.0 | 4.8 | 0.00 | 0.00 | 0.00 | 92 | 1010.4 |
| 20260509061016 | 23 | 129 | 0.0 | 4.8 | 0.00 | 0.00 | 0.00 | 92 | 1010.3 |
| 20260509060516 | 23 | 129 | 0.0 | 4.8 | 0.00 | 0.00 | 0.00 | 92 | 1010.2 |
| 20260509060016 | 23 | 129 | 1.6 | 4.8 | 0.00 | 0.00 | 0.00 | 92 | 1010.2 |
| 20260509055515 | 23 | 129 | 1.6 | 6.4 | 0.00 | 0.00 | 0.00 | 92 | 1010.3 |
| 20260509055014 | 23 | 129 | 1.6 | 6.4 | 0.00 | 0.00 | 0.00 | 92 | 1010.4 |
| 20260509054513 | 23 | 124 | 3.2 | 6.4 | 0.00 | 0.00 | 0.00 | 92 | 1010.5 |
| 20260509054013 | 23 | 115 | 1.6 | 6.4 | 0.00 | 0.00 | 0.00 | 92 | 1010.4 |
| 20260509053514 | 23 | 114 | 0.0 | 4.8 | 0.00 | 0.00 | 0.00 | 92 | 1010.4 |
| 20260509053013 | 23 | 114 | 1.6 | 4.8 | 0.00 | 0.00 | 0.00 | 92 | 1010.3 |
| 20260509052514 | 23 | 96 | 0.0 | 6.4 | 0.00 | 0.00 | 0.00 | 92 | 1010.4 |
| 20260509052011 | 23 | 96 | 1.6 | 6.4 | 0.00 | 0.00 | 0.00 | 92 | 1010.4 |
| 20260509051514 | 22 | 118 | 1.6 | 6.4 | 0.00 | 0.00 | 0.00 | 92 | 1010.4 |
| 20260509051009 | 22 | 117 | 1.6 | 4.8 | 0.00 | 0.00 | 0.00 | 91 | 1010.4 |
| 20260509050508 | 22 | 117 | 0.0 | 6.4 | 0.00 | 0.00 | 0.00 | 91 | 1010.4 |
| 20260509050006 | 22 | 117 | 1.6 | 6.4 | 0.00 | 0.00 | 0.00 | 91 | 1010.5 |
| 20260509045507 | 22 | 113 | 0.0 | 6.4 | 0.00 | 0.00 | 0.00 | 91 | 1010.4 |
| 20260509045006 | 22 | 114 | 3.2 | 9.7 | 0.00 | 0.00 | 0.00 | 91 | 1010.4 |
| 20260509044505 | 22 | 116 | 3.2 | 9.7 | 0.00 | 0.00 | 0.00 | 91 | 1010.5 |
| 20260509044006 | 22 | 119 | 1.6 | 6.4 | 0.00 | 0.00 | 0.00 | 91 | 1010.6 |
| 20260509043508 | 22 | 119 | 1.6 | 6.4 | 0.00 | 0.00 | 0.00 | 91 | 1010.6 |
| 20260509043005 | 22 | 165 | 1.6 | 8.0 | 0.00 | 0.00 | 0.00 | 91 | 1010.6 |
| 20260509042505 | 22 | 165 | 1.6 | 8.0 | 0.00 | 0.00 | 0.00 | 91 | 1010.6 |
| 20260509042005 | 22 | 168 | 3.2 | 8.0 | 0.00 | 0.00 | 0.00 | 91 | 1010.5 |